SCP
0 0 0 0 0 0 0 0 0 0 1 0 0 0 0 0 0 0 0 0 0 0 0 0 0 0 0 0 0 0 0 0
0 0 0 0 0 0 0 0 0 0 0 0 0 0 0 0 0 0 0 0 0 0 0 0 0 0 0 0 0 0 0 0
0 0 0 0 0 0 0 0 0 0 0 0 0 0 0 0 0 0 0 0 0 0 0 0 0 0 0 0 0 0 0 0
0 0 0 0 0 0 0 0 0 0 0 0 0 0 0 0 0 0 0 0 0 0 0 0 0 0 0 0 0 0 0 0
0 0 0 0 0 0 0 0 0 0 0 0 0 0 0 0 0 0 0 0 0 0 0 0 0 0 0 0 0 0 0 0
0 0 0 0 0 0 0 0 0 0 0 0 0 0 0 0 0 0 0 0 0 0 0 0 0 0 0 0 0 0 0 0
0 0 0 0 0 0 0 0 0 -0 -0 -0 0 0 0 0 0 0 0 0 0 0 0 0 0 0 0 0 0 0 0 0
0 0 0 0 0 0 -0 0 -0 -0 -0 0 0 0 0 0 0 0 0 0 0 0 0 0 0 0 0 0 0 0 0 0
0 0 0 0 -0 -0 -0 -0 0 -0 0 0 0 0 0 0 0 0 0 0 0 0 0 0 0 0 -0 -0 -0 -0 -0 -0
0 0 0 -0 -0 0 0 0 -0 0 0 -0 -0 -0 0 0 0 0 -0 -0 -0 0 0 0 0 0 -0 -0 -0 -0 -0 0
0 0 0 -0 -0 -0 -0 -0 -0 -0 -0 -0 0 0 0 0 -0 -0 0 0 0 0 0 0 0 0 0 -0 -0 0 0 0
0 0 0 0 0 0 0 0 0 0 0 0 0 0 0 0 0 0 0 0 0 0 0 0 0 0 0 0 0 0 -0 -0
0 0 0 0 0 0 0 0 0 0 0 0 0 0 0 0 0 0 0 0 0 0 0 0 0 0 0 0 0 -0 0 -0
0 0 0 0 0 0 0 0 0 0 0 0 0 0 0 0 0 0 0 0 0 0 0 0 -0 0 0 0 0 0 0 -0
0 0 0 0 0 0 0 0 0 0 0 0 0 0 0 0 0 0 0 0 -0 -0 -0 -0 0 0 0 0 0 -0 0 0
0 0 0 0 0 0 0 0 0 0 0 0 0 0 0 0 0 -0 -0 0 0 -0 0 0 0 -0 0 0 0 0 0 0
0 0 0 0 0 0 0 0 0 0 0 0 0 0 0 0 0 -0 -0 -0 -0 0 0 0 0 0 0 0 0 -0 -0 -0
0 0 0 0 0 0 0 0 0 0 0 0 0 0 0 0 0 0 0 0 0 0 0 0 0 0 -0 -0 -0 -0 -0 -0
0 0 0 0 0 0 0 0 0 0 0 0 0 0 0 0 0 0 0 0 0 0 -0 0 0 -0 -0 -0 -0 -0 -0 -0
0 0 0 0 0 0 0 0 0 0 0 0 0 0 0 0 0 0 -0 -0 -0 -0 -0 -0 -0 -0 -0 -0 -0 -0 0 -0
Wind_Speed_500mb
52 59 67 67 65 65 61 56 47 44 34 41 40 49 40 40 46 44 42 46 46 45 43 43 43 42 42 44 45 45 40 40
60 65 70 70 71 68 61 56 57 56 57 45 46 50 59 53 50 49 52 49 46 45 44 42 42 36 45 47 46 41 32 44
72 76 71 70 74 71 61 52 61 46 52 65 72 69 57 54 52 51 52 48 43 45 47 42 33 43 43 37 35 30 35 31
73 64 74 84 84 78 71 66 72 69 61 55 55 55 57 53 57 52 52 50 49 55 47 41 33 37 41 32 30 30 23 17
76 92 86 82 81 76 76 69 56 53 56 61 69 60 59 56 51 53 48 53 55 51 45 33 36 35 32 24 15 16 9 11
85 89 80 76 73 70 69 72 65 63 63 61 61 56 52 48 49 52 44 40 39 35 29 32 33 26 16 13 10 16 21 25
70 71 70 72 67 65 65 64 61 61 57 53 47 44 40 38 36 29 30 31 28 26 29 29 21 13 8 6 16 25 38 36
70 69 75 73 72 64 60 60 56 49 45 41 34 34 31 29 26 32 18 19 15 21 22 16 13 13 12 14 27 43 40 31
71 69 64 60 58 54 52 53 51 47 39 35 32 29 27 24 18 17 15 17 13 11 14 15 17 15 26 42 51 51 47 43
65 62 60 52 41 36 40 40 36 28 24 25 18 17 12 6 12 13 6 5 13 24 28 31 28 31 40 42 34 33 31 36
59 55 53 46 41 27 29 28 9 13 13 14 13 14 14 7 7 8 15 20 30 36 40 47 47 45 38 31 50 53 45 50
53 56 52 48 36 30 21 24 26 26 23 19 21 21 19 18 23 20 27 35 39 47 54 59 59 61 64 58 50 50 44 43
49 48 47 42 36 31 27 28 32 32 34 30 29 31 31 35 36 38 40 40 47 53 52 56 66 65 64 42 27 27 26 24
42 42 42 41 39 35 31 31 33 35 38 37 41 45 47 51 54 55 47 48 51 56 58 56 53 45 35 34 32 38 38 32
37 36 35 36 39 39 34 34 37 43 47 51 56 62 71 76 76 74 73 63 58 55 51 48 45 45 47 47 50 51 43 35
34 33 34 34 34 37 32 35 42 48 55 67 71 71 70 65 64 64 61 62 58 52 54 59 60 57 50 42 42 36 37 36
33 36 36 36 36 35 32 40 50 57 70 84 76 62 61 58 53 51 51 51 52 52 52 56 55 53 49 45 40 36 38 38
35 39 37 38 41 39 39 48 57 65 76 77 67 55 55 52 51 49 48 49 47 44 39 35 32 35 39 41 40 40 40 39
30 33 34 40 39 41 48 50 56 57 67 63 66 51 47 46 44 45 43 40 40 39 38 41 39 37 39 41 42 42 41 39
30 33 33 34 33 34 42 46 52 60 72 51 49 44 43 44 44 44 45 46 44 44 43 44 43 40 40 41 40 39 38 38
Wind_Direction_500mb
313 308 304 302 300 299 305 287 284 294 288 270 265 275 275 274 279 283 286 279 285 290 292 294 292 291 294 292 295 289 292 287
313 307 304 304 303 303 304 294 280 276 280 284 280 280 284 280 283 283 281 279 280 289 292 284 288 290 283 282 283 288 285 296
308 303 302 304 304 303 287 290 267 286 294 289 280 283 285 284 284 281 276 269 274 287 291 293 283 285 286 289 288 286 286 295
309 307 306 305 298 292 292 288 287 279 279 280 288 280 282 280 278 278 274 271 275 282 284 282 293 292 283 288 286 270 277 275
309 306 301 298 293 290 286 283 279 278 283 277 278 278 276 275 271 270 277 278 280 278 271 272 278 278 286 290 285 250 214 149
306 303 301 299 298 296 295 288 285 280 273 273 273 273 270 269 272 275 275 273 273 269 263 272 269 279 275 290 218 180 154 132
307 305 302 301 300 297 290 285 281 276 271 270 270 270 269 265 262 265 261 265 263 248 261 268 263 239 243 193 180 152 125 108
312 308 306 304 300 298 293 286 277 273 272 267 264 257 256 258 255 254 250 283 266 254 260 227 202 176 146 161 153 138 126 121
320 320 316 315 311 303 291 284 274 270 262 252 251 243 246 238 253 238 261 294 281 233 175 148 146 141 140 141 136 127 120 111
332 333 333 333 327 314 311 303 288 269 256 244 232 228 211 279 221 229 249 258 172 144 137 125 119 130 139 134 127 123 118 114
345 346 347 355 353 347 340 339 292 191 180 175 175 167 175 143 168 152 156 151 141 132 129 124 122 124 130 128 118 110 108 102
355 359 2 3 360 15 26 54 88 110 122 129 126 124 131 123 121 128 136 138 136 130 125 122 123 122 112 104 108 111 95 89
5 7 12 14 24 39 55 79 93 100 107 113 125 128 125 123 126 127 129 127 131 127 126 128 122 118 116 108 111 108 107 101
13 19 25 31 41 53 74 91 105 114 113 115 116 119 120 115 114 108 100 108 112 110 109 111 115 107 107 115 123 120 107 95
24 26 34 45 51 59 72 90 102 108 112 117 118 114 109 108 105 104 104 101 98 99 99 95 93 97 96 95 96 88 81 74
34 41 53 57 65 73 84 99 107 111 114 114 107 106 101 100 98 98 95 95 94 92 93 95 95 96 92 85 79 75 76 75
49 57 64 70 73 78 95 106 110 112 115 108 101 98 99 99 99 98 97 96 95 95 95 91 87 86 85 84 84 82 77 71
57 64 67 74 78 85 99 108 115 120 119 109 103 99 99 99 99 99 98 97 97 96 93 89 86 84 79 76 74 74 73 68
71 72 78 88 89 105 114 121 117 116 120 108 102 94 95 99 100 102 102 102 100 97 95 97 91 86 81 77 74 70 67 64
83 81 86 98 98 111 119 121 116 120 114 84 83 94 93 95 96 97 97 97 96 94 90 86 84 82 80 77 74 70 66 63
Wind_Speed_850mb
52 59 67 67 65 65 61 56 47 44 34 41 40 49 40 40 46 44 42 46 46 45 43 43 43 42 42 44 45 45 40 40
60 65 70 70 71 68 61 56 57 56 57 45 46 50 59 53 50 49 52 49 46 45 44 42 42 36 45 47 46 41 32 44
72 76 71 70 74 71 61 52 61 46 52 65 72 69 57 54 52 51 52 48 43 45 47 42 33 43 43 37 35 30 35 31
73 64 74 84 84 78 71 66 72 69 61 55 55 55 57 53 57 52 52 50 49 55 47 41 33 37 41 32 30 30 23 17
76 92 86 82 81 76 76 69 56 53 56 61 69 60 59 56 51 53 48 53 55 51 45 33 36 35 32 24 15 16 9 11
85 89 80 76 73 70 69 72 65 63 63 61 61 56 52 48 49 52 44 40 39 35 29 32 33 26 16 13 10 16 21 25
70 71 70 72 67 65 65 64 61 61 57 53 47 44 40 38 36 29 30 31 28 26 29 29 21 13 8 6 16 25 38 36
70 69 75 73 72 64 60 60 56 49 45 41 34 34 31 29 26 32 18 19 15 21 22 16 13 13 12 14 27 43 40 31
71 69 64 60 58 54 52 53 51 47 39 35 32 29 27 24 18 17 15 17 13 11 14 15 17 15 26 42 51 51 47 43
65 62 60 52 41 36 40 40 36 28 24 25 18 17 12 6 12 13 6 5 13 24 28 31 28 31 40 42 34 33 31 36
59 55 53 46 41 27 29 28 9 13 13 14 13 14 14 7 7 8 15 20 30 36 40 47 47 45 38 31 50 53 45 50
53 56 52 48 36 30 21 24 26 26 23 19 21 21 19 18 23 20 27 35 39 47 54 59 59 61 64 58 50 50 44 43
49 48 47 42 36 31 27 28 32 32 34 30 29 31 31 35 36 38 40 40 47 53 52 56 66 65 64 42 27 27 26 24
42 42 42 41 39 35 31 31 33 35 38 37 41 45 47 51 54 55 47 48 51 56 58 56 53 45 35 34 32 38 38 32
37 36 35 36 39 39 34 34 37 43 47 51 56 62 71 76 76 74 73 63 58 55 51 48 45 45 47 47 50 51 43 35
34 33 34 34 34 37 32 35 42 48 55 67 71 71 70 65 64 64 61 62 58 52 54 59 60 57 50 42 42 36 37 36
33 36 36 36 36 35 32 40 50 57 70 84 76 62 61 58 53 51 51 51 52 52 52 56 55 53 49 45 40 36 38 38
35 39 37 38 41 39 39 48 57 65 76 77 67 55 55 52 51 49 48 49 47 44 39 35 32 35 39 41 40 40 40 39
30 33 34 40 39 41 48 50 56 57 67 63 66 51 47 46 44 45 43 40 40 39 38 41 39 37 39 41 42 42 41 39
30 33 33 34 33 34 42 46 52 60 72 51 49 44 43 44 44 44 45 46 44 44 43 44 43 40 40 41 40 39 38 38
Wind_Direction_850mb
313 308 304 302 300 299 305 287 284 294 288 270 265 275 275 274 279 283 286 279 285 290 292 294 292 291 294 292 295 289 292 287
313 307 304 304 303 303 304 294 280 276 280 284 280 280 284 280 283 283 281 279 280 289 292 284 288 290 283 282 283 288 285 296
308 303 302 304 304 303 287 290 267 286 294 289 280 283 285 284 284 281 276 269 274 287 291 293 283 285 286 289 288 286 286 295
309 307 306 305 298 292 292 288 287 279 279 280 288 280 282 280 278 278 274 271 275 282 284 282 293 292 283 288 286 270 277 275
309 306 301 298 293 290 286 283 279 278 283 277 278 278 276 275 271 270 277 278 280 278 271 272 278 278 286 290 285 250 214 149
306 303 301 299 298 296 295 288 285 280 273 273 273 273 270 269 272 275 275 273 273 269 263 272 269 279 275 290 218 180 154 132
307 305 302 301 300 297 290 285 281 276 271 270 270 270 269 265 262 265 261 265 263 248 261 268 263 239 243 193 180 152 125 108
312 308 306 304 300 298 293 286 277 273 272 267 264 257 256 258 255 254 250 283 266 254 260 227 202 176 146 161 153 138 126 121
320 320 316 315 311 303 291 284 274 270 262 252 251 243 246 238 253 238 261 294 281 233 175 148 146 141 140 141 136 127 120 111
332 333 333 333 327 314 311 303 288 269 256 244 232 228 211 279 221 229 249 258 172 144 137 125 119 130 139 134 127 123 118 114
345 346 347 355 353 347 340 339 292 191 180 175 175 167 175 143 168 152 156 151 141 132 129 124 122 124 130 128 118 110 108 102
355 359 2 3 360 15 26 54 88 110 122 129 126 124 131 123 121 128 136 138 136 130 125 122 123 122 112 104 108 111 95 89
5 7 12 14 24 39 55 79 93 100 107 113 125 128 125 123 126 127 129 127 131 127 126 128 122 118 116 108 111 108 107 101
13 19 25 31 41 53 74 91 105 114 113 115 116 119 120 115 114 108 100 108 112 110 109 111 115 107 107 115 123 120 107 95
24 26 34 45 51 59 72 90 102 108 112 117 118 114 109 108 105 104 104 101 98 99 99 95 93 97 96 95 96 88 81 74
34 41 53 57 65 73 84 99 107 111 114 114 107 106 101 100 98 98 95 95 94 92 93 95 95 96 92 85 79 75 76 75
49 57 64 70 73 78 95 106 110 112 115 108 101 98 99 99 99 98 97 96 95 95 95 91 87 86 85 84 84 82 77 71
57 64 67 74 78 85 99 108 115 120 119 109 103 99 99 99 99 99 98 97 97 96 93 89 86 84 79 76 74 74 73 68
71 72 78 88 89 105 114 121 117 116 120 108 102 94 95 99 100 102 102 102 100 97 95 97 91 86 81 77 74 70 67 64
83 81 86 98 98 111 119 121 116 120 114 84 83 94 93 95 96 97 97 97 96 94 90 86 84 82 80 77 74 70 66 63